Goshen, IN

9:12 AM EDT on August 22, 2017 (GMT -0400)
Goshen Municipal

Weather History for KGSH - May, 2014

Change the Weather History Date:

Wednesday, May 7, 2014

  Actual Average Record
Temperature  
Mean Temperature 65 °F -  
Max Temperature 80 °F 69 °F 84 °F (1965)
Min Temperature 51 °F 45 °F 28 °F (1989)
Growing Degree Days 15 (Base 50)    
Moisture  
Dew Point 46 °F    
Average Humidity 53    
Maximum Humidity 72    
Minimum Humidity 44    
Precipitation  
Precipitation 0.00 in - - ()
Sea Level Pressure  
Sea Level Pressure 29.91 in    
Wind  
Wind Speed 14 mph (ESE)    
Max Wind Speed 20 mph    
Max Gust Speed 21 mph    
Visibility 10 miles    
Events      
Averages and records for this station are not official NWS values.
T = Trace of Precipitation, MM = Missing Value Source: NWS Daily Summary

Daily Weather History Graph

Daily Weather History Graph

Search for Another Location

Airport or City:

Trip Planner

Search our weather history database for the weather conditions in past years. The results will help you decide how hot, cold, wet, or windy it might be!

Date:

Astronomy

May. 07, 2014 Rise Set
Actual Time 6:32 AM EDT 8:47 PM EDT
Civil Twilight 6:01 AM EDT 9:18 PM EDT
Nautical Twilight 5:23 AM EDT 9:56 PM EDT
Astronomical Twilight 4:42 AM EDT 10:38 PM EDT
Moon 1:46 PM EDT (5/7) 2:36 AM EDT (5/7)
Length of Visible Light 15h 16m
Length of Day
14h 14m
First Quarter, 55% of the Moon is Illuminated
May 7
First Quarter
May 14
Full
May 21
Last Quarter
May 28
New
Jun 5
First Quarter

Hourly Weather History & Observations

Time (EDT) Temp. Dew Point Humidity Pressure Visibility Wind Dir Wind Speed Gust Speed Precip Events Conditions
12:53 AM 55.0 °F 35.1 °F 47% 29.97 in 10.0 mi East 19.6 mph - N/A   Overcast
1:53 AM 54.0 °F 34.0 °F 47% 29.95 in 10.0 mi ESE 15.0 mph - N/A   Scattered Clouds
2:53 AM 54.0 °F 34.0 °F 47% 29.95 in 10.0 mi ESE 13.8 mph - N/A   Mostly Cloudy
3:53 AM 53.1 °F 35.1 °F 50% 29.91 in 10.0 mi ESE 11.5 mph - N/A   Clear
4:53 AM 51.1 °F 35.1 °F 54% 29.93 in 10.0 mi East 10.4 mph - N/A   Clear
5:53 AM 51.1 °F 37.9 °F 61% 29.92 in 10.0 mi ESE 11.5 mph - N/A   Clear
6:53 AM 53.1 °F 37.9 °F 57% 29.94 in 10.0 mi ESE 10.4 mph - N/A   Clear
8:53 AM 57.0 °F 41.0 °F 55% 29.95 in 10.0 mi ENE 8.1 mph 19.6 mph N/A   Clear
9:53 AM 59.0 °F 42.1 °F 53% 29.95 in 10.0 mi ENE 11.5 mph - N/A   Clear
10:53 AM 63.0 °F 45.0 °F 52% 29.96 in 10.0 mi ESE 15.0 mph - N/A   Clear
11:53 AM 64.9 °F 46.0 °F 50% 29.94 in 10.0 mi ESE 15.0 mph - N/A   Clear
1:53 PM 75.0 °F 53.1 °F 46% 29.90 in 10.0 mi SE 16.1 mph 20.7 mph N/A   Clear
2:53 PM 75.0 °F 54.0 °F 48% 29.88 in 10.0 mi SE 11.5 mph - N/A   Clear
3:53 PM 79.0 °F 55.0 °F 44% 29.87 in 10.0 mi ESE 10.4 mph 20.7 mph N/A   Clear
4:53 PM 79.0 °F 55.9 °F 45% 29.86 in 10.0 mi East 15.0 mph - N/A   Clear
5:53 PM 77.0 °F 55.9 °F 48% 29.85 in 10.0 mi East 16.1 mph - N/A   Clear
6:53 PM 75.0 °F 55.0 °F 50% 29.85 in 10.0 mi ESE 11.5 mph - N/A   Clear
7:53 PM 73.0 °F 55.9 °F 55% 29.86 in 10.0 mi East 11.5 mph - N/A   Clear
8:53 PM 70.0 °F 54.0 °F 57% 29.86 in 10.0 mi East 10.4 mph - N/A   Clear
9:53 PM 68.0 °F 54.0 °F 61% 29.86 in 10.0 mi ESE 17.3 mph - N/A   Clear
10:53 PM 64.9 °F 54.0 °F 68% 29.88 in 10.0 mi East 16.1 mph - N/A   Clear
11:53 PM 61.0 °F 52.0 °F 72% 29.90 in 10.0 mi ESE 11.5 mph - N/A   Clear